SCP
0 0 0 0 0 0 0 0 0 0 0 0 0 0 0 0 0 0 0 0 0 0 0 0 0 0 0 0 0 0 0 0 0 0 0 0 0 0
0 0 0 0 0 0 0 0 0 0 0 0 0 0 0 0 0 0 0 0 0 0 0 0 0 0 0 0 0 0 0 0 0 0 0 0 0 0
0 0 0 0 0 0 0 0 0 0 0 0 0 0 0 0 0 0 0 0 0 0 0 0 0 0 0 0 0 0 0 0 0 0 0 0 0 0
0 0 0 0 0 0 0 0 0 0 0 0 0 0 0 0 0 0 0 0 0 0 0 0 0 0 0 0 0 0 0 0 0 0 0 0 0 0
0 0 0 0 0 0 0 0 0 0 0 0 0 0 0 0 0 0 0 0 0 0 0 0 0 0 0 0 0 0 0 0 0 0 0 0 0 0
0 0 0 0 0 0 0 0 0 0 0 0 0 0 0 0 0 0 0 0 0 0 0 0 0 0 0 0 0 0 0 0 0 0 0 0 0 0
0 0 0 0 0 0 0 0 0 0 0 0 0 0 0 0 0 0 0 0 0 0 0 0 0 0 0 0 0 0 0 0 0 0 0 0 0 0
0 0 0 0 0 0 0 0 0 0 0 0 0 0 0 0 0 0 0 0 0 0 0 0 0 0 0 0 0 0 0 0 0 0 0 0 0 0
0 0 0 0 0 0 0 0 0 0 0 0 0 0 0 0 0 0 0 0 0 0 0 0 0 0 0 0 0 0 0 0 0 0 0 0 0 0
0 0 0 0 0 0 0 0 0 0 0 0 0 0 0 0 0 0 0 0 0 0 0 0 0 0 0 0 0 0 0 0 0 0 0 0 0 0
0 0 0 0 0 0 0 0 0 0 0 0 0 0 0 0 0 0 0 0 0 0 0 0 0 0 0 0 0 0 0 0 0 0 0 0 0 0
0 0 0 0 0 0 0 0 0 0 0 0 0 0 0 0 0 0 0 0 0 0 0 0 0 0 0 0 0 0 0 0 0 0 0 0 0 0
0 0 0 0 0 0 0 0 0 0 0 0 0 0 0 0 0 0 0 0 0 0 0 0 0 0 0 0 0 0 0 0 0 0 0 0 0 0
0 0 0 0 0 0 0 0 0 0 0 0 0 0 0 0 0 0 0 0 0 0 0 0 0 0 0 0 0 0 0 0 0 0 0 0 0 0
0 0 0 0 0 0 0 0 0 0 0 0 0 0 0 0 0 0 0 0 0 0 0 0 0 0 0 0 0 0 0 0 0 0 0 0 0 0
0 0 0 0 0 0 0 0 0 0 0 0 0 0 0 0 0 0 0 0 0 0 0 0 0 0 0 0 0 0 0 0 0 0 0 0 0 0
0 0 0 0 0 0 0 0 0 0 0 0 0 0 0 0 0 0 0 0 0 0 0 0 0 0 0 0 0 0 0 0 0 0 0 0 0 0
0 0 0 0 0 0 0 0 0 0 0 0 0 0 0 0 0 0 0 0 0 0 0 0 0 0 0 0 0 0 0 0 0 0 0 0 0 0
0 0 0 0 0 0 0 0 0 0 0 0 0 0 0 0 0 0 0 0 0 0 0 0 0 0 0 0 0 0 0 0 0 0 0 0 0 0
0 0 0 0 0 0 0 0 0 0 0 0 0 0 0 0 0 0 0 0 0 0 0 0 0 0 0 0 0 0 0 0 0 0 0 0 0 0
0 0 0 0 0 0 0 0 0 0 0 0 0 0 0 0 0 0 0 0 0 0 0 0 0 0 0 0 0 0 0 0 0 0 0 0 0 0
0 0 0 0 0 0 0 0 0 0 0 0 0 0 0 0 0 0 0 0 0 0 0 0 0 0 0 0 0 0 0 0 0 0 0 0 0 0
0 0 0 0 0 0 0 0 0 0 0 0 0 0 0 0 0 0 0 0 0 0 0 0 0 0 0 0 0 0 0 0 0 0 0 0 0 0
Wind_Speed
2 2 2 2 2 2 2 3 3 3 4 3 2 2 2 2 6 4 4 8 11 11 11 11 11 11 11 11 12 12 12 12 12 12 12 12 12 13
2 2 2 2 2 2 2 2 3 4 5 3 3 3 3 4 7 4 4 11 11 12 12 12 11 11 11 12 12 12 12 12 12 12 12 12 13 13
2 3 3 3 2 2 2 2 3 3 6 5 3 3 3 5 5 4 4 5 5 12 13 12 12 12 12 12 12 12 12 12 12 13 13 12 13 13
3 3 4 3 3 3 3 3 4 4 5 8 5 3 4 5 5 5 5 4 4 10 13 13 13 12 13 13 13 12 12 12 12 12 12 12 13 13
4 4 4 4 4 4 4 4 4 4 4 5 6 4 3 3 4 5 5 4 5 7 11 12 12 13 13 13 13 12 12 12 12 11 12 12 12 13
4 5 5 5 6 5 4 5 4 4 4 5 6 5 4 4 3 4 5 3 5 5 8 9 11 13 13 14 13 12 12 12 12 12 12 12 12 12
4 5 5 7 9 7 5 5 4 4 4 5 6 5 5 4 4 3 5 5 5 4 4 4 5 5 6 10 12 12 12 12 12 12 12 12 12 12
5 5 5 7 9 12 13 12 9 7 6 6 6 7 8 6 5 4 4 5 5 2 3 5 3 5 5 5 11 14 13 12 12 12 12 12 12 12
5 5 5 6 8 6 9 13 12 14 14 8 8 9 8 6 5 6 6 6 7 3 2 5 3 5 5 7 13 13 13 12 12 12 12 12 12 12
5 6 6 6 6 7 6 6 7 8 10 8 8 9 8 7 7 7 7 7 6 4 4 5 4 4 5 4 11 13 13 12 12 12 12 12 12 12
5 5 6 6 11 13 8 7 8 8 11 14 15 14 15 15 10 5 4 5 7 5 3 4 3 3 3 4 6 10 11 12 12 12 12 12 12 11
4 5 9 10 12 14 7 6 8 9 7 7 9 10 9 10 13 7 5 5 6 5 3 3 3 2 4 3 3 3 4 8 10 11 11 11 11 6
4 4 5 12 14 15 12 7 11 11 7 6 6 5 5 5 5 5 5 5 6 6 3 3 3 3 4 4 3 2 3 3 3 6 8 11 12 8
5 5 6 13 15 15 12 12 15 13 5 5 5 5 5 5 5 5 6 6 6 7 5 4 4 4 4 5 5 3 3 3 3 4 4 7 9 11
5 10 12 14 14 10 11 15 12 6 5 6 6 6 5 5 4 3 4 4 5 5 5 5 5 4 4 5 5 4 3 3 3 3 4 4 4 4
5 8 12 12 10 10 10 8 5 5 6 6 6 5 4 4 4 4 4 3 4 4 4 5 5 5 5 6 6 6 4 4 3 3 4 5 4 4
5 4 3 4 4 4 4 5 4 5 6 5 5 5 5 4 4 3 3 3 4 4 3 2 3 4 6 6 6 6 6 5 5 4 4 6 5 5
7 4 5 5 5 5 6 5 5 5 5 5 5 5 5 5 4 3 3 4 4 4 3 2 2 2 2 4 8 7 6 5 4 4 4 5 7 5
5 4 5 5 5 5 5 5 6 5 4 5 5 5 4 4 4 4 4 3 4 4 3 2 2 2 4 5 4 6 5 4 4 4 4 5 6 6
3 5 5 5 5 5 5 5 5 5 4 4 4 4 4 4 4 4 4 4 4 3 3 3 3 4 5 4 4 4 6 5 4 4 5 5 6 9
4 5 5 5 5 5 5 5 5 4 4 4 4 4 4 4 4 4 4 6 5 3 4 4 4 5 3 2 3 4 4 6 7 5 4 4 5 5
5 5 5 5 5 5 4 4 4 4 4 4 4 3 3 3 4 4 4 4 4 4 4 3 3 2 2 3 5 5 5 5 7 10 11 10 5 4
5 5 5 5 5 4 4 4 5 4 4 4 4 3 3 4 4 4 4 4 3 3 3 3 2 2 3 3 4 5 6 6 5 5 5 9 13 16
Wind_Direction
220 221 227 237 225 222 210 197 207 267 279 260 265 265 264 270 284 285 277 291 298 299 301 303 303 303 302 303 305 307 309 310 309 308 309 310 311 313
221 227 241 245 244 235 225 223 212 227 261 256 248 261 275 282 284 279 270 288 292 293 294 296 296 296 297 297 299 301 303 304 304 303 304 305 305 307
243 234 245 244 244 245 235 231 231 223 257 274 254 258 261 270 283 278 270 269 277 286 290 292 293 293 295 294 294 295 297 299 299 299 300 301 302 303
246 244 251 251 247 246 237 239 241 230 241 272 279 268 257 258 264 271 277 272 264 280 286 287 288 291 292 291 290 291 293 294 295 295 296 297 299 300
238 240 249 246 255 253 246 246 249 251 238 257 275 271 266 264 271 273 269 269 271 278 284 285 288 291 291 290 290 290 293 291 290 291 292 294 295 297
241 240 243 239 246 251 253 249 249 252 248 254 270 275 269 263 258 270 281 268 271 275 278 280 284 288 290 289 289 289 289 288 287 287 288 288 290 291
251 247 246 251 255 259 260 251 244 250 255 260 268 275 273 266 260 256 271 281 270 256 266 270 276 277 282 284 287 286 284 282 281 283 286 287 288 289
255 258 259 263 268 274 276 272 260 254 254 256 262 263 268 261 261 257 266 280 282 248 246 269 252 263 266 261 277 281 278 278 280 283 284 285 285 287
249 256 267 266 277 266 274 279 276 272 268 261 258 259 262 256 255 261 255 255 260 250 246 272 256 262 264 272 278 277 277 278 279 282 283 283 282 284
247 247 255 264 265 270 264 267 266 267 269 267 255 257 254 250 242 251 257 262 262 248 221 262 262 260 272 270 277 276 277 278 280 282 284 284 284 285
254 250 254 259 273 280 277 271 277 275 277 273 269 269 268 270 267 261 254 264 274 263 212 237 258 268 269 264 272 280 284 283 282 283 284 286 286 288
266 259 266 272 276 281 273 264 273 278 274 276 275 275 272 269 269 255 239 252 267 268 218 216 244 268 285 264 258 277 286 286 288 291 292 293 292 290
268 267 263 279 284 285 285 271 271 281 276 268 266 264 262 257 253 243 231 232 248 256 227 206 234 234 248 278 276 253 251 263 281 286 290 290 290 289
265 266 270 282 286 288 287 282 286 290 278 272 269 266 262 258 251 243 237 235 237 248 239 219 234 237 250 269 273 267 256 255 254 263 264 283 289 290
266 274 282 286 290 289 284 288 291 285 274 270 268 265 254 250 249 248 246 244 249 246 237 228 230 238 241 256 266 267 277 267 249 252 263 270 271 276
277 279 286 287 287 285 287 288 277 266 269 267 268 267 260 250 248 244 252 254 263 264 235 224 226 228 245 253 258 265 256 257 259 255 266 269 265 257
286 281 278 283 278 277 275 270 267 270 271 262 261 265 264 258 254 244 247 252 253 261 263 240 229 235 241 249 258 258 258 255 255 260 268 275 269 259
291 277 278 278 278 281 281 279 272 267 262 260 260 258 260 257 257 248 244 250 256 257 258 257 257 281 271 256 236 250 254 256 259 256 255 269 278 270
281 270 272 275 277 278 277 277 277 271 263 258 259 256 255 254 252 250 245 246 252 257 256 247 238 244 264 276 264 226 237 258 265 264 254 256 271 277
261 266 271 273 273 273 273 274 276 276 268 262 256 252 250 251 250 249 245 244 249 257 258 245 230 230 240 254 266 266 245 247 254 265 272 272 271 278
268 267 268 269 268 268 270 270 270 272 271 265 258 252 248 246 248 246 245 249 255 251 250 253 246 251 254 246 266 271 267 251 250 255 265 279 285 285
266 267 268 268 266 265 267 269 269 269 269 264 259 254 248 244 245 244 243 245 245 244 253 263 263 254 225 238 260 274 285 289 277 271 262 248 245 254
265 265 266 267 264 263 262 262 263 266 263 262 258 254 249 249 247 243 242 239 241 248 257 268 269 253 248 246 258 271 280 288 292 293 282 271 263 263